Вернуться в каталог

STARLINK-35954

АктивенСвязьVLEO
NORAD 66885·PAYLOAD·🇺🇸 United States

Запущен Dec 4, 2025 с Vandenberg Space Force Base

Loading…

Ближайшие Пролёты (ближайшие 24 часа)

TLE

СвежийSource: CelesTrak SupGP

Эпоха: Sep 15, 2026, 02:51 UTC

1 66885C 25283H   26258.11923611 -.00055649  00000+0 -16442-2 0  2587
2 66885  53.1582 220.8378 0001322  89.9708 331.5681 15.34418725    16

Отслеживайте STARLINK-35954 в реальном времени с AllMySat

Download on the App Store